Year,Month,Day,Hour,Minute,Value (Times are PST for temperature in C)
2014,10,30,13,11,14.00
2014,10,30,13,12,14.00
2014,10,30,13,13,14.00
2014,10,30,13,14,14.00
2014,10,30,13,15,14.00
2014,10,30,13,16,14.00
2014,10,30,13,17,14.00
2014,10,30,13,19,13.90
2014,10,30,13,20,13.90
2014,10,30,13,21,13.90
2014,10,30,13,22,13.90
2014,10,30,13,23,13.90
2014,10,30,13,24,13.90
2014,10,30,13,25,13.90
2014,10,30,13,26,13.90
2014,10,30,13,27,13.90
2014,10,30,13,28,14.00
2014,10,30,13,29,14.00
2014,10,30,13,30,14.00
2014,10,30,13,31,14.00
2014,10,30,13,32,14.00
2014,10,30,13,33,14.00
2014,10,30,13,34,14.00
2014,10,30,13,35,14.00
2014,10,30,13,36,14.00
2014,10,30,13,37,14.10
2014,10,30,13,38,14.10
2014,10,30,13,39,14.10
2014,10,30,13,40,14.10
2014,10,30,13,41,14.10
2014,10,30,13,42,14.10
2014,10,30,13,43,14.10
2014,10,30,13,44,14.10
2014,10,30,13,45,14.00
2014,10,30,13,46,14.00
2014,10,30,13,47,14.00
2014,10,30,13,48,13.90
2014,10,30,13,49,13.90
2014,10,30,13,50,13.90
2014,10,30,13,51,13.80
2014,10,30,13,52,13.80
2014,10,30,13,53,13.80
2014,10,30,13,54,13.80
2014,10,30,13,55,13.70
2014,10,30,13,56,13.70
2014,10,30,13,57,13.70
2014,10,30,13,58,13.70
2014,10,30,13,59,13.70
2014,10,30,14,00,13.70
2014,10,30,14,01,13.70
2014,10,30,14,02,13.70
2014,10,30,14,03,13.70
2014,10,30,14,04,13.70
2014,10,30,14,05,13.70
2014,10,30,14,06,13.70
2014,10,30,14,07,13.70
2014,10,30,14,08,13.70
2014,10,30,14,09,13.70
2014,10,30,14,10,13.70
2014,10,30,14,11,13.70
2014,10,30,14,12,13.70
2014,10,30,14,13,13.70
2014,10,30,14,14,13.70
2014,10,30,14,15,13.70
2014,10,30,14,16,13.80
2014,10,30,14,17,13.80
2014,10,30,14,18,13.80
2014,10,30,14,19,13.80
2014,10,30,14,20,13.80
2014,10,30,14,21,13.90
2014,10,30,14,22,13.90
2014,10,30,14,23,13.90
2014,10,30,14,24,13.90
2014,10,30,14,25,14.00
2014,10,30,14,26,13.90
2014,10,30,14,27,13.90
2014,10,30,14,28,14.00
2014,10,30,14,29,13.90
2014,10,30,14,30,13.90
2014,10,30,14,31,13.90
2014,10,30,14,32,13.90
2014,10,30,14,33,13.90
2014,10,30,14,34,13.90
2014,10,30,14,35,13.90
2014,10,30,14,36,13.90
2014,10,30,14,37,13.90
2014,10,30,14,38,13.90
2014,10,30,14,39,13.90
2014,10,30,14,40,13.90
2014,10,30,14,41,13.90
2014,10,30,14,42,13.90
2014,10,30,14,43,13.90
2014,10,30,14,44,13.90
2014,10,30,14,45,13.90
2014,10,30,14,46,13.90
2014,10,30,14,47,13.80
2014,10,30,14,48,13.80
2014,10,30,14,49,13.80
2014,10,30,14,50,13.80
2014,10,30,14,51,13.80
2014,10,30,14,52,13.70
2014,10,30,14,53,13.70
2014,10,30,14,54,13.70
2014,10,30,14,55,13.70
2014,10,30,14,56,13.70
2014,10,30,14,57,13.70
2014,10,30,14,58,13.60
2014,10,30,14,59,13.60
2014,10,30,15,00,13.60
2014,10,30,15,01,13.60
2014,10,30,15,02,13.60
2014,10,30,15,03,13.60
2014,10,30,15,04,13.60
2014,10,30,15,05,13.60
2014,10,30,15,06,13.60
2014,10,30,15,07,13.60
2014,10,30,15,08,13.60
2014,10,30,15,09,13.50
2014,10,30,15,10,13.50
2014,10,30,15,11,13.50
2014,10,30,15,12,13.50
2014,10,30,15,13,13.40
2014,10,30,15,14,13.40
2014,10,30,15,15,13.40
2014,10,30,15,16,13.40
2014,10,30,15,17,13.40
2014,10,30,15,18,13.40
2014,10,30,15,19,13.40
2014,10,30,15,20,13.40
2014,10,30,15,21,13.40
2014,10,30,15,22,13.40
2014,10,30,15,23,13.40
2014,10,30,15,24,13.40
2014,10,30,15,25,13.50
2014,10,30,15,26,13.50
2014,10,30,15,27,13.50
2014,10,30,15,28,13.50
2014,10,30,15,29,13.60
2014,10,30,15,30,13.60
2014,10,30,15,31,13.60
2014,10,30,15,32,13.60
2014,10,30,15,33,13.60
2014,10,30,15,34,13.60
2014,10,30,15,35,13.60
2014,10,30,15,36,13.60
2014,10,30,15,37,13.50
2014,10,30,15,38,13.50
2014,10,30,15,39,13.50
2014,10,30,15,40,13.50
2014,10,30,15,41,13.50
2014,10,30,15,42,13.50
2014,10,30,15,43,13.50
2014,10,30,15,44,13.50
2014,10,30,15,45,13.40
2014,10,30,15,46,13.40
2014,10,30,15,47,13.40
2014,10,30,15,48,13.40
2014,10,30,15,49,13.40
2014,10,30,15,50,13.40
2014,10,30,15,51,13.30
2014,10,30,15,52,13.30
2014,10,30,15,53,13.30
2014,10,30,15,54,13.30
2014,10,30,15,55,13.30
2014,10,30,15,56,13.30
2014,10,30,15,57,13.30
2014,10,30,15,58,13.30
2014,10,30,15,59,13.30
2014,10,30,16,00,13.30
2014,10,30,16,01,13.30
2014,10,30,16,02,13.30
2014,10,30,16,03,13.20
2014,10,30,16,04,13.20
2014,10,30,16,05,13.20
2014,10,30,16,06,13.20
2014,10,30,16,07,13.20
2014,10,30,16,08,13.20
2014,10,30,16,09,13.20
2014,10,30,16,10,13.20
2014,10,30,16,11,13.20
2014,10,30,16,12,13.20
2014,10,30,16,13,13.20
2014,10,30,16,14,13.20
2014,10,30,16,15,13.20
2014,10,30,16,16,13.20
2014,10,30,16,17,13.20
2014,10,30,16,18,13.20
2014,10,30,16,19,13.20
2014,10,30,16,20,13.20
2014,10,30,16,21,13.20
2014,10,30,16,22,13.20
2014,10,30,16,23,13.20
2014,10,30,16,24,13.20
2014,10,30,16,25,13.20
2014,10,30,16,26,13.20
2014,10,30,16,27,13.20
2014,10,30,16,28,13.20
2014,10,30,16,29,13.20
2014,10,30,16,30,13.20
2014,10,30,16,31,13.20
2014,10,30,16,32,13.20
2014,10,30,16,33,13.20
2014,10,30,16,34,13.20
2014,10,30,16,35,13.30
2014,10,30,16,36,13.30
2014,10,30,16,37,13.30
2014,10,30,16,38,13.30
2014,10,30,16,39,13.30
2014,10,30,16,40,13.30
2014,10,30,16,41,13.30
2014,10,30,16,42,13.30
2014,10,30,16,43,13.30
2014,10,30,16,44,13.30
2014,10,30,16,45,13.30
2014,10,30,16,46,13.40
2014,10,30,16,47,13.40
2014,10,30,16,48,13.40
2014,10,30,16,49,13.40
2014,10,30,16,50,13.40
2014,10,30,16,51,13.40
2014,10,30,16,52,13.40
2014,10,30,16,53,13.40
2014,10,30,16,54,13.40
2014,10,30,16,55,13.40
2014,10,30,16,56,13.40
2014,10,30,16,57,13.40
2014,10,30,16,58,13.40
2014,10,30,16,59,13.40
2014,10,30,17,00,13.40
2014,10,30,17,01,13.40
2014,10,30,17,02,13.40
2014,10,30,17,03,13.30
2014,10,30,17,04,13.30
2014,10,30,17,05,13.40
2014,10,30,17,06,13.40
2014,10,30,17,07,13.40
2014,10,30,17,08,13.40
2014,10,30,17,09,13.40
2014,10,30,17,10,13.40
2014,10,30,17,11,13.40
2014,10,30,17,12,13.40
2014,10,30,17,13,13.40
2014,10,30,17,14,13.40
2014,10,30,17,15,13.40
2014,10,30,17,16,13.40
2014,10,30,17,17,13.40
2014,10,30,17,18,13.40
2014,10,30,17,19,13.40
2014,10,30,17,20,13.40
2014,10,30,17,21,13.40
2014,10,30,17,22,13.40
2014,10,30,17,23,13.40
2014,10,30,17,24,13.40
2014,10,30,17,25,13.40
2014,10,30,17,26,13.40
2014,10,30,17,27,13.40
2014,10,30,17,28,13.40
2014,10,30,17,29,13.40
2014,10,30,17,30,13.40
2014,10,30,17,31,13.40
2014,10,30,17,32,13.40
2014,10,30,17,33,13.40
2014,10,30,17,34,13.40
2014,10,30,17,35,13.40
2014,10,30,17,36,13.40
2014,10,30,17,37,13.40
2014,10,30,17,38,13.40
2014,10,30,17,39,13.40
2014,10,30,17,40,13.40
2014,10,30,17,41,13.40
2014,10,30,17,42,13.40
2014,10,30,17,43,13.40
2014,10,30,17,44,13.40
2014,10,30,17,45,13.30
2014,10,30,17,46,13.30
2014,10,30,17,47,13.30
2014,10,30,17,48,13.30
2014,10,30,17,49,13.30
2014,10,30,17,50,13.30
2014,10,30,17,51,13.30
2014,10,30,17,52,13.30
2014,10,30,17,53,13.30
2014,10,30,17,54,13.30
2014,10,30,17,55,13.30
2014,10,30,17,56,13.30
2014,10,30,17,57,13.30
2014,10,30,17,58,13.30
2014,10,30,17,59,13.30
2014,10,30,18,00,13.30
2014,10,30,18,01,13.30
2014,10,30,18,02,13.30
2014,10,30,18,03,13.30
2014,10,30,18,04,13.30
2014,10,30,18,05,13.30
2014,10,30,18,06,13.30
2014,10,30,18,07,13.20
2014,10,30,18,08,13.20
2014,10,30,18,09,13.20
2014,10,30,18,10,13.20
2014,10,30,18,11,13.20
2014,10,30,18,12,13.20
2014,10,30,18,13,13.10
2014,10,30,18,14,13.10
2014,10,30,18,15,13.10
2014,10,30,18,16,13.10
2014,10,30,18,17,13.10
2014,10,30,18,18,13.10
2014,10,30,18,19,13.10
2014,10,30,18,20,13.10
2014,10,30,18,21,13.10
2014,10,30,18,22,13.10
2014,10,30,18,23,13.20
2014,10,30,18,24,13.10
2014,10,30,18,25,13.10
2014,10,30,18,26,13.20
2014,10,30,18,27,13.20
2014,10,30,18,28,13.20
2014,10,30,18,29,13.20
2014,10,30,18,30,13.10
2014,10,30,18,31,13.10
2014,10,30,18,32,13.10
2014,10,30,18,33,13.10
2014,10,30,18,34,13.10
2014,10,30,18,35,13.10
2014,10,30,18,36,13.10
2014,10,30,18,37,13.10
2014,10,30,18,38,13.10
2014,10,30,18,39,13.10
2014,10,30,18,40,13.10
2014,10,30,18,41,13.10
2014,10,30,18,42,13.10
2014,10,30,18,43,13.10
2014,10,30,18,44,13.10
2014,10,30,18,45,13.10
2014,10,30,18,46,13.10
2014,10,30,18,47,13.10
2014,10,30,18,48,13.10
2014,10,30,18,49,13.10
2014,10,30,18,50,13.10
2014,10,30,18,51,13.10
2014,10,30,18,52,13.10
2014,10,30,18,53,13.00
2014,10,30,18,54,13.00
2014,10,30,18,55,13.00
2014,10,30,18,56,13.00
2014,10,30,18,57,13.00
2014,10,30,18,58,13.00
2014,10,30,18,59,13.00
2014,10,30,19,00,13.00
2014,10,30,19,01,13.00
2014,10,30,19,02,13.00
2014,10,30,19,03,13.00
2014,10,30,19,04,13.00
2014,10,30,19,05,13.00
2014,10,30,19,06,13.00
2014,10,30,19,07,13.00
2014,10,30,19,08,13.00
2014,10,30,19,09,13.00
2014,10,30,19,10,13.00
2014,10,30,19,11,13.10
2014,10,30,19,12,13.10
2014,10,30,19,13,13.10
2014,10,30,19,14,13.10
2014,10,30,19,15,13.10
2014,10,30,19,16,13.10
2014,10,30,19,17,13.10
2014,10,30,19,18,13.20
2014,10,30,19,19,13.20
2014,10,30,19,20,13.20
2014,10,30,19,21,13.20
2014,10,30,19,22,13.20
2014,10,30,19,23,13.20
2014,10,30,19,24,13.20
2014,10,30,19,25,13.20
2014,10,30,19,26,13.20
2014,10,30,19,27,13.20
2014,10,30,19,28,13.20
2014,10,30,19,29,13.20
2014,10,30,19,30,13.20
2014,10,30,19,31,13.20
2014,10,30,19,32,13.20
2014,10,30,19,33,13.20
2014,10,30,19,34,13.10
2014,10,30,19,35,13.10
2014,10,30,19,36,13.10
2014,10,30,19,37,13.10
2014,10,30,19,38,13.10
2014,10,30,19,39,13.10
2014,10,30,19,40,13.20
2014,10,30,19,41,13.20
2014,10,30,19,42,13.10
2014,10,30,19,43,13.20
2014,10,30,19,44,13.20
2014,10,30,19,45,13.20
2014,10,30,19,46,13.20
2014,10,30,19,47,13.20
2014,10,30,19,48,13.20
2014,10,30,19,49,13.20
2014,10,30,19,50,13.20
2014,10,30,19,51,13.20
2014,10,30,19,52,13.30
2014,10,30,19,53,13.30
2014,10,30,19,54,13.30
2014,10,30,19,55,13.30
2014,10,30,19,56,13.30
2014,10,30,19,57,13.30
2014,10,30,19,58,13.30
2014,10,30,19,59,13.30
2014,10,30,20,00,13.30
2014,10,30,20,01,13.30
2014,10,30,20,02,13.30
2014,10,30,20,03,13.30
2014,10,30,20,04,13.30
2014,10,30,20,05,13.30
2014,10,30,20,06,13.30
2014,10,30,20,07,13.30
2014,10,30,20,08,13.40
2014,10,30,20,09,13.40
2014,10,30,20,10,13.40
2014,10,30,20,11,13.40
2014,10,30,20,12,13.40
2014,10,30,20,13,13.40
2014,10,30,20,14,13.40
2014,10,30,20,15,13.40
2014,10,30,20,16,13.40
2014,10,30,20,17,13.40
2014,10,30,20,18,13.40
2014,10,30,20,19,13.40
2014,10,30,20,20,13.40
2014,10,30,20,21,13.40
2014,10,30,20,22,13.40
2014,10,30,20,23,13.40
2014,10,30,20,24,13.40
2014,10,30,20,25,13.40
2014,10,30,20,26,13.40
2014,10,30,20,27,13.30
2014,10,30,20,28,13.30
2014,10,30,20,29,13.30
2014,10,30,20,30,13.30
2014,10,30,20,31,13.30
2014,10,30,20,32,13.30
2014,10,30,20,33,13.30
2014,10,30,20,34,13.30
2014,10,30,20,35,13.20
2014,10,30,20,36,13.20
2014,10,30,20,37,13.20
2014,10,30,20,38,13.20
2014,10,30,20,39,13.20
2014,10,30,20,40,13.20
2014,10,30,20,41,13.20
2014,10,30,20,42,13.20
2014,10,30,20,43,13.20
2014,10,30,20,44,13.10
2014,10,30,20,45,13.10
2014,10,30,20,46,13.10
2014,10,30,20,47,13.10
2014,10,30,20,48,13.10
2014,10,30,20,49,13.10
2014,10,30,20,50,13.10
2014,10,30,20,51,13.10
2014,10,30,20,52,13.00
2014,10,30,20,53,13.00
2014,10,30,20,54,13.00
2014,10,30,20,55,13.00
2014,10,30,20,56,13.00
2014,10,30,20,57,13.00
2014,10,30,20,58,13.00
2014,10,30,20,59,13.00
2014,10,30,21,00,12.90
2014,10,30,21,01,12.90
2014,10,30,21,02,12.90
2014,10,30,21,03,12.90
2014,10,30,21,04,12.90
2014,10,30,21,05,12.90
2014,10,30,21,06,12.90
2014,10,30,21,07,12.90
2014,10,30,21,08,12.90
2014,10,30,21,09,12.90
2014,10,30,21,10,12.90
2014,10,30,21,11,12.90
2014,10,30,21,12,12.90
2014,10,30,21,13,12.90
2014,10,30,21,14,12.90
2014,10,30,21,15,12.90
2014,10,30,21,16,12.90
2014,10,30,21,17,12.90
2014,10,30,21,18,12.90
2014,10,30,21,19,12.90
2014,10,30,21,20,12.90
2014,10,30,21,21,12.90
2014,10,30,21,22,12.90
2014,10,30,21,23,12.90
2014,10,30,21,24,12.90
2014,10,30,21,25,12.90
2014,10,30,21,26,12.90
2014,10,30,21,27,12.90
2014,10,30,21,28,12.90
2014,10,30,21,29,12.90
2014,10,30,21,30,12.90
2014,10,30,21,31,12.90
2014,10,30,21,32,12.90
2014,10,30,21,33,12.90
2014,10,30,21,34,12.90
2014,10,30,21,35,12.90
2014,10,30,21,36,12.90
2014,10,30,21,37,12.90
2014,10,30,21,38,12.80
2014,10,30,21,39,12.80
2014,10,30,21,40,12.80
2014,10,30,21,41,12.80
2014,10,30,21,42,12.80
2014,10,30,21,43,12.80
2014,10,30,21,44,12.80
2014,10,30,21,45,12.80
2014,10,30,21,46,12.80
2014,10,30,21,47,12.80
2014,10,30,21,48,12.80
2014,10,30,21,49,12.80
2014,10,30,21,50,12.80
2014,10,30,21,51,12.80
2014,10,30,21,52,12.80
2014,10,30,21,53,12.80
2014,10,30,21,54,12.80
2014,10,30,21,55,12.80
2014,10,30,21,56,12.80
2014,10,30,21,57,12.80
2014,10,30,21,58,12.80
2014,10,30,21,59,12.80
2014,10,30,22,00,12.80
2014,10,30,22,01,12.80
2014,10,30,22,02,12.80
2014,10,30,22,03,12.80
2014,10,30,22,04,12.80
2014,10,30,22,05,12.80
2014,10,30,22,06,12.80
2014,10,30,22,07,12.80
2014,10,30,22,08,12.80
2014,10,30,22,09,12.80
2014,10,30,22,10,12.80
2014,10,30,22,11,12.80
2014,10,30,22,12,12.80
2014,10,30,22,13,12.80
2014,10,30,22,14,12.80
2014,10,30,22,15,12.80
2014,10,30,22,16,12.70
2014,10,30,22,17,12.70
2014,10,30,22,18,12.70
2014,10,30,22,19,12.70
2014,10,30,22,20,12.70
2014,10,30,22,21,12.70
2014,10,30,22,22,12.70
2014,10,30,22,23,12.70
2014,10,30,22,24,12.60
2014,10,30,22,25,12.60
2014,10,30,22,26,12.60
2014,10,30,22,27,12.60
2014,10,30,22,28,12.60
2014,10,30,22,29,12.60
2014,10,30,22,30,12.60
2014,10,30,22,31,12.60
2014,10,30,22,32,12.60
2014,10,30,22,33,12.50
2014,10,30,22,34,12.50
2014,10,30,22,35,12.50
2014,10,30,22,36,12.50
2014,10,30,22,37,12.50
2014,10,30,22,38,12.50
2014,10,30,22,39,12.40
2014,10,30,22,40,12.40
2014,10,30,22,41,12.40
2014,10,30,22,42,12.40
2014,10,30,22,43,12.40
2014,10,30,22,44,12.40
2014,10,30,22,45,12.40
2014,10,30,22,46,12.40
2014,10,30,22,47,12.40
2014,10,30,22,48,12.40
2014,10,30,22,49,12.40
2014,10,30,22,50,12.40
2014,10,30,22,51,12.40
2014,10,30,22,52,12.40
2014,10,30,22,53,12.30
2014,10,30,22,54,12.30
2014,10,30,22,55,12.30
2014,10,30,22,56,12.30
2014,10,30,22,57,12.30
2014,10,30,22,58,12.30
2014,10,30,22,59,12.30
2014,10,30,23,00,12.30
2014,10,30,23,01,12.30
2014,10,30,23,02,12.30
2014,10,30,23,03,12.30
2014,10,30,23,04,12.30
2014,10,30,23,05,12.30
2014,10,30,23,06,12.30
2014,10,30,23,07,12.30
2014,10,30,23,08,12.30
2014,10,30,23,09,12.30
2014,10,30,23,10,12.30
2014,10,30,23,11,12.30
2014,10,30,23,12,12.30
2014,10,30,23,13,12.30
2014,10,30,23,14,12.30
2014,10,30,23,15,12.30
2014,10,30,23,16,12.30
2014,10,30,23,17,12.30
2014,10,30,23,18,12.30
2014,10,30,23,19,12.30
2014,10,30,23,20,12.30
2014,10,30,23,21,12.30
2014,10,30,23,22,12.30
2014,10,30,23,23,12.30
2014,10,30,23,24,12.20
2014,10,30,23,25,12.20
2014,10,30,23,26,12.20
2014,10,30,23,27,12.20
2014,10,30,23,28,12.20
2014,10,30,23,29,12.20
2014,10,30,23,30,12.20
2014,10,30,23,31,12.10
2014,10,30,23,32,12.10
2014,10,30,23,33,12.10
2014,10,30,23,34,12.10
2014,10,30,23,35,12.10
2014,10,30,23,36,12.10
2014,10,30,23,37,12.10
2014,10,30,23,38,12.10
2014,10,30,23,39,12.00
2014,10,30,23,40,12.00
2014,10,30,23,41,11.90
2014,10,30,23,42,11.90
2014,10,30,23,43,11.90
2014,10,30,23,44,11.90
2014,10,30,23,45,11.90
2014,10,30,23,46,11.80
2014,10,30,23,47,11.80
2014,10,30,23,48,11.80
2014,10,30,23,49,11.80
2014,10,30,23,50,11.80
2014,10,30,23,51,11.80
2014,10,30,23,52,11.80
2014,10,30,23,53,11.80
2014,10,30,23,54,11.80
2014,10,30,23,55,11.70
2014,10,30,23,56,11.70
2014,10,30,23,57,11.70
2014,10,30,23,58,11.70
2014,10,30,23,59,11.70
